EW8299 Weather Reports


Display with metric or nautical units.
time (UTC)temp
F
wind
direction
speed
MPH
gust
MPH
rain 1hr
in
rain 24hr
in
rain mn
in
humidity
%
barometer
mb
20260906030039 52 237 3.0 11.0 0.00 0.00 0.00 92 1004.9
20260906024541 52 272 0.0 5.0 0.00 0.00 0.00 92 1004.7
20260906023044 52 228 0.0 7.0 0.00 0.00 0.00 91 1004.7
20260906021530 53 262 0.0 7.0 0.00 0.00 0.00 91 1004.6
20260906020028 53 272 2.0 9.0 0.00 0.00 0.00 90 1004.5
20260906014528 53 185 0.0 8.0 0.00 0.00 0.00 90 1004.5
20260906013035 53 254 2.0 9.0 0.00 0.00 0.00 90 1004.4
20260906011524 54 268 3.0 11.0 0.00 0.00 0.00 90 1004.3
20260906010023 54 231 0.0 9.0 0.00 0.00 0.00 90 1004.5
20260906004522 54 256 1.0 10.0 0.00 0.00 0.00 90 1004.3
20260906003020 54 204 3.0 14.0 0.00 0.00 0.00 90 1004.3
20260906001520 54 237 2.0 11.0 0.00 0.00 0.00 90 1004.3
20260906000035 54 247 1.0 9.0 0.00 0.00 0.00 90 1004.3
20260905234516 54 310 1.0 7.0 0.00 0.00 0.00 90 1004.3
20260905233015 54 241 1.0 13.0 0.00 0.00 0.00 90 1004.4
20260905231515 54 256 2.0 15.0 0.00 0.00 0.00 90 1004.2
20260905230013 54 234 3.0 9.0 0.00 0.00 0.00 90 1004.2
20260905224513 54 244 1.0 10.0 0.00 0.00 0.00 90 1004.4
20260905223011 54 248 3.0 14.0 0.00 0.00 0.00 90 1004.3
20260905221507 54 224 1.0 11.0 0.00 0.00 0.00 90 1004.2
20260905220006 54 246 4.0 14.0 0.00 0.00 0.00 90 1004.3
20260905214505 54 249 0.0 15.0 0.00 0.00 0.00 90 1004.2
20260905213105 55 232 5.0 16.0 0.00 0.00 0.00 89 1004.3
20260905211600 55 251 2.0 14.0 0.00 0.00 0.00 88 1004.3
20260905210113 55 230 0.0 8.0 0.00 0.00 0.00 89 1004.3
20260905204601 55 243 3.0 12.0 0.00 0.00 0.00 89 1004.2
20260905203055 55 248 2.0 15.0 0.00 0.00 0.00 89 1004.3
20260905201551 55 227 1.0 10.0 0.00 0.00 0.00 89 1004.1
20260905200049 55 267 3.0 10.0 0.00 0.00 0.00 89 1004.1
20260905194559 55 225 4.0 12.0 0.00 0.00 0.00 89 1004.1
20260905193048 55 258 3.0 13.0 0.00 0.00 0.00 88 1004.2
20260905191550 55 204 1.0 15.0 0.00 0.00 0.00 88 1004.1
20260905190046 56 226 2.0 14.0 0.00 0.00 0.00 88 1003.9
20260905184607 56 257 3.0 17.0 0.00 0.00 0.00 89 1003.9
20260905183048 56 253 1.0 11.0 0.00 0.00 0.00 88 1004.0
20260905181555 56 240 6.0 15.0 0.00 0.00 0.00 88 1004.0
20260905180049 56 187 9.0 20.0 0.00 0.00 0.00 88 1004.0
20260905174541 56 237 4.0 11.0 0.00 0.00 0.00 88 1003.9
20260905173040 56 229 2.0 12.0 0.00 0.00 0.00 88 1003.8
20260905171541 56 223 3.0 15.0 0.00 0.00 0.00 88 1003.6
20260905170039 56 254 1.0 16.0 0.00 0.00 0.00 88 1003.5
20260905164535 57 212 1.0 10.0 0.00 0.00 0.00 88 1003.3
20260905163033 56 249 6.0 18.0 0.00 0.00 0.00 88 1003.2
20260905161531 57 249 1.0 12.0 0.00 0.00 0.00 88 1003.1
20260905160030 57 293 2.0 14.0 0.00 0.00 0.00 88 1002.9
20260905154535 57 220 1.0 11.0 0.00 0.00 0.00 91 1002.7
20260905153024 56 335 3.0 19.0 0.00 0.00 0.00 91 1002.7
20260905151525 56 233 0.0 10.0 0.00 0.00 0.00 90 1002.5
20260905150022 57 193 0.0 10.0 0.00 0.00 0.00 90 1002.5
20260905144521 57 238 1.0 14.0 0.00 0.00 0.00 89 1002.5
20260905143020 56 232 2.0 11.0 0.00 0.00 0.00 89 1002.4
20260905141521 56 254 2.0 13.0 0.00 0.00 0.00 89 1002.3
20260905140017 57 254 3.0 14.0 0.00 0.00 0.00 88 1002.2
20260905134516 59 233 7.0 23.0 0.00 0.00 0.00 85 1002.0
20260905133022 61 244 9.0 18.0 0.00 0.00 0.00 78 1001.1
20260905131511 62 231 9.0 20.0 0.00 0.00 0.00 78 1001.1
20260905130015 62 184 5.0 15.0 0.00 0.00 0.00 79 1000.8
20260905124508 61 270 1.0 11.0 0.00 0.00 0.00 84 1001.0
20260905123007 60 318 3.0 18.0 0.00 0.00 0.00 83 1000.9
20260905121506 60 229 4.0 16.0 0.00 0.00 0.00 86 1000.9
20260905120004 60 268 10.0 20.0 0.00 0.00 0.00 81 1000.8
20260905114502 61 247 6.0 17.0 0.00 0.00 0.00 80 1000.6
20260905113100 61 206 8.0 18.0 0.00 0.00 0.00 80 1000.5
20260905111643 61 260 10.0 18.0 0.00 0.00 0.00 83 1000.6
20260905110055 59 224 6.0 19.0 0.00 0.00 0.00 88 1000.5
20260905104600 57 250 4.0 15.0 0.00 0.00 0.00 90 1000.4
20260905103054 58 236 4.0 22.0 0.00 0.00 0.00 88 1000.3
20260905101559 59 229 9.0 18.0 0.00 0.00 0.00 89 999.9
20260905100051 58 252 2.0 13.0 0.00 0.00 0.00 91 999.6
20260905094547 58 211 5.0 13.0 0.00 0.00 0.00 91 999.6
20260905093046 58 300 3.0 13.0 0.00 0.00 0.00 91 999.4
20260905091545 58 238 3.0 18.0 0.00 0.00 0.00 88 999.2
20260905090044 59 235 7.0 23.0 0.00 0.00 0.00 88 999.2
20260905084549 60 249 13.0 23.0 0.00 0.00 0.00 86 999.0
20260905083040 59 283 8.0 17.0 0.00 0.00 0.00 89 998.7
20260905081538 58 229 10.0 29.0 0.00 0.00 0.00 88 998.4
20260905080045 60 251 9.0 23.0 0.00 0.00 0.00 85 998.1
20260905074538 59 262 6.0 17.0 0.00 0.00 0.00 88 997.8
20260905073032 58 276 10.0 32.0 0.00 0.00 0.00 90 997.8
20260905071533 58 238 7.0 14.0 0.00 0.00 0.00 92 997.4
20260905070027 57 232 6.0 12.0 0.00 0.00 0.00 92 997.4
20260905064526 56 245 4.0 12.0 0.00 0.00 0.00 92 997.3
20260905063024 56 193 4.0 10.0 0.00 0.00 0.00 93 996.9
20260905061529 56 238 4.0 10.0 0.00 0.00 0.00 94 997.0
20260905060026 56 246 2.0 10.0 0.00 0.00 0.00 95 996.7
20260905054518 56 217 4.0 10.0 0.00 0.00 0.00 95 996.8
20260905053017 56 233 2.0 9.0 0.00 0.00 0.00 95 996.6
20260905051518 56 200 2.0 11.0 0.00 0.00 0.00 95 996.3
20260905050017 56 170 1.0 6.0 0.00 0.00 0.00 94 996.0
20260905044514 56 239 0.0 5.0 0.00 0.00 0.00 94 996.4
20260905043014 56 227 1.0 8.0 0.00 0.00 0.00 94 996.4
20260905041513 55 225 1.0 9.0 0.00 0.00 0.00 95 996.4
20260905040010 55 235 2.0 9.0 0.00 0.00 0.00 94 996.4
20260905034509 55 254 4.0 10.0 0.00 0.00 0.00 95 996.4
20260905033018 55 212 0.0 0.0 0.00 0.00 0.00 94 996.4
20260905031509 54 231 0.0 0.0 0.00 0.00 0.00 94 996.2